Location: La Oliva
(42.2466°N, 2.9955°E)
Time: 07:10:11
(UTC+00:00)

S3M - Pass Details

Date: 22 April 2021
Orbit: 949 x 1004 km, 83.0° (Epoch: 07 May)

Event Time Altitude Azimuth Distance (km) Brightness Sun altitude
Exits shadow 22:05:25 70° 52° (NE) 1,066 4.1 -30.5°
Drops below altitude 10° 22:11:14 10° 11° (N) 2,786 7.0 -31.0°
Sets 22:13:47 0° 10° (N) 3,738 7.8 -31.2°
